Regional Weather Roundup
Issued by NWS Cleveland, OH

Home | Current Version | Previous Version | Graphics & Text | Print | Product List | Glossary On
Versions: 1 2 3 4 5 6 7 8 9 10 11 12 13 14 15 16 17 18 19 20 21 22 23 24 25 26 27 28 29 30 31 32 33 34 35 36 37 38 39 40 41 42 43 44 45 46 47 48 49 50
000
ASUS41 KCLE 260000
RWRCLE
OHIO REGIONAL WEATHER ROUNDUP
NATIONAL WEATHER SERVICE WILMINGTON, OH
800 PM EDT FRI JUL 25 2014

NOTE: "FAIR" INDICATES FEW OR NO CLOUDS BELOW 12,000 FEET WITH NO
SIGNIFICANT WEATHER AND/OR OBSTRUCTIONS TO VISIBILITY.

OHZ001>008-015>018-024>027-034-035-043-044-260100-
   NORTHWEST OHIO

CITY           SKY/WX    TMP DP  RH WIND       PRES   REMARKS
DEFIANCE       CLOUDY    72  56  57 SW3       29.98F
FINDLAY        CLOUDY    72  56  57 SW5       29.99F
TOLEDO EXPRESS LGT RAIN  68  58  70 S3        29.98F
TOLEDO METCALF CLOUDY    73  55  53 SW7       30.00R
LIMA           CLOUDY    72  56  57 SE3       30.00F
$$

OHZ009>014-019>023-028>033-038-089-260100-
   NORTHEAST OHIO

CITY           SKY/WX    TMP DP  RH WIND       PRES   REMARKS
CLE-HOPKINS    MOCLDY    70  52  52 N8        30.02R
CLE-LAKEFRONT  MOCLDY    70  54  56 N5        29.99R
CUY CO. ARPT   CLOUDY    70  55  60 N6        30.01S
LORAIN-ELYRIA  PTCLDY    75  53  46 NW3       30.01R
ASHTABULA      PTCLDY    67  55  65 CALM      30.02R
AKRON-CANTON   PTCLDY    73  54  51 SW5       30.01S
WOOSTER        NOT AVBL
MANSFIELD      MOCLDY    72  55  55 SW6       30.02S
YOUNGSTOWN     MOCLDY    71  53  52 S3        30.01S
$$

OHZ042-051>053-060>062-070>072-077>081-260100-
  SOUTHWEST OHIO

CITY           SKY/WX    TMP DP  RH WIND       PRES   REMARKS
CINC-COVINGTON CLOUDY    74  59  59 S3        29.99F
CINC-LUNKEN    CLOUDY    73  62  68 SE5       29.99F
HAMILTON       CLOUDY    70  64  81 CALM      29.98F
DAYTON         NOT AVBL
WRIGHT-PAT AFB DRIZZLE   72  61  68 SE3       29.98F
DAYTON GENERAL CLOUDY    70  61  73 CALM      29.98F
WILMINGTON     CLOUDY    72  62  71 CALM      30.01F
$$

OHZ036-037-039>041-045>050-054>059-063>069-073>076-082>088-260100-
  CENTRAL AND SOUTHEAST OHIO

CITY           SKY/WX    TMP DP  RH WIND       PRES   REMARKS
COLUMBUS       CLOUDY    76  55  48 W7        30.00S
OSU AIRPORT    CLOUDY    71  59  65 W6        30.01R
BOLTON FIELD   NOT AVBL
RICKENBACK AFB NOT AVBL
NEWARK         CLOUDY    73  59  61 CALM      30.00S
MARION         CLOUDY    72  55  55 SW6       30.01S
LANCASTER      CLOUDY    73  60  63 CALM      30.01F
ZANESVILLE     MOCLDY    73  58  59 S3        30.01S
NEW PHILLY     PTCLDY    72  58  61 SW3       30.02S
$$



USA.gov is the U.S. government's official web portal to all federal, state and local government web resources and services.